Regional Weather Roundup
Issued by NWS

Home | Current Version | Previous Version | Graphics & Text | Print | Product List | Glossary On
Versions: 1 2 3 4 5 6 7 8 9 10 11 12 13 14 15 16 17 18 19 20 21 22 23 24 25 26 27 28 29 30 31 32 33 34 35 36 37 38 39 40 41 42 43 44 45 46 47 48 49 50
577
ASUS43 KTOP 240459
RWRKS

WEATHER ROUNDUP FOR KANSAS
NATIONAL WEATHER SERVICE GOODLAND KS
1100 PM CST THU FEB 23 2017

NOTE:  "FAIR" INDICATES FEW OR NO CLOUDS BELOW 12,000 FEET WITH NO
SIGNIFICANT WEATHER AND/OR OBSTRUCTIONS TO VISIBILITY.

KSZ001>006-013>018-027>032-041>047-240600-
NORTHWEST KANSAS

CITY           SKY/WX    TMP DP  RH WIND       PRES   REMARKS
GOODLAND       CLOUDY    24  22  91 N25       29.76S WCI   8
HAYS           CLOUDY    34  28  79 N21G30    29.70R WCI  22
HILL CITY      CLOUDY    32  27  81 N15       29.75R WCI  22
RUSSELL        CLOUDY    34  31  88 NW21      29.67R WCI  22
$$

KSZ061>065-074>080-084>089-240600-
SOUTHWEST KANSAS

CITY           SKY/WX    TMP DP  RH WIND       PRES   REMARKS
DODGE CITY     CLOUDY    33  28  81 N24G35    29.70R WCI  20
ELKHART          N/A     31  18  59 N18         N/A  WCI  19
GARDEN CITY    CLOUDY    32  25  75 N23G29    29.74R WCI  19
GREAT BEND     CLOUDY    35  30  82 NW21G32   29.68R WCI  24
LIBERAL        CLOUDY    34  21  60 N23       29.72R WCI  22
$$

KSZ066>073-081>083-090>101-240600-
SOUTHEAST KANSAS

CITY           SKY/WX    TMP DP  RH WIND       PRES   REMARKS
CHANUTE        CLOUDY    70  46  42 W13       29.38R
COFFEYVILLE    CLEAR     72  48  42 S17G29    29.38R
HUTCHINSON     CLOUDY    40  34  79 NW17G29   29.61R WCI  31
NEWTON         CLOUDY    41  37  86 N16       29.57R
PARSONS        PTCLDY    72  45  37 S14G20    29.39R
WICHITA INTL   CLOUDY    43  37  79 N20       29.58R
WICHITA JABRA  CLOUDY    41  37  86 N18       29.55R
WICHITA MCCONL PTCLDY    41  36  81 N20G29    29.55R
WINFIELD       CLOUDY    45  39  79 N24G38    29.54R
$$

KSZ007>012-019>026-033>040-048>060-102>105-240600-
NORTHEAST KANSAS

CITY           SKY/WX    TMP DP  RH WIND       PRES   REMARKS
CONCORDIA      CLOUDY    35  34  96 NW15      29.61R WCI  25
EMPORIA        CLOUDY    45  40  82 NW20G36   29.50R
LAWRENCE       CLOUDY    50  46  86 NW21      29.45R FOG
MANHATTAN      CLOUDY    44  38  79 N7        29.53R
OLATHE IND     MOCLDY    49  47  93 W20G26    29.41R
OLATHE EXE     CLOUDY    50  49  96 SE6G17    29.35F
SALINA         CLOUDY    40  34  79 NW25G31   29.61R WCI  29
TOPEKA BILLARD LGT RAIN  45  43  93 NW22G37   29.50R FOG
TOPEKA FORBES  LGT RAIN  47  41  80 NW32G43   29.48R
$$




USA.gov is the U.S. government's official web portal to all federal, state and local government web resources and services.